Tracking 29487 objects as of 10-Sep-2024
HD Live streaming from Space Station
objects crossing your sky now

DELTA 1 DEB

Track DELTA 1 DEB now!
10-day predictions


NORAD ID: 10716
Int'l Code: 1976-077AM
Perigee: 1,266.9 km
Apogee: 1,448.0 km
Inclination: 102.9 °
Period: 112.7 minutes
Semi major axis: 7728 km
RCS: 0.0939 m2 (small)
Launch date: July 29, 1976
Source: United States (US)
Launch site: AIR FORCE WESTERN TEST RANGE (AFWTR)

Note: This is SATELLITE DEBRIS
Your satellite tracking list
Your tracking list is empty




NASA's NSSDC Master Catalog

Two Line Element Set (TLE):
1 10716U 76077AM  24253.81991939  .00005519  00000-0  24521-1 0  9992
2 10716 102.8546   2.2863 0117136 261.1879 251.7669 12.77803453194186
Source of the keplerian elements: AFSPC